This is the latest recevied weather packets stored in our database for station/object KC4JIR. If no packets are shown the sender has not sent any weather packets the latest 10 day(s).
| Time | Temp. | Humidity | Pressure | Rain* | Wind** | Luminosity | Snow |
|---|---|---|---|---|---|---|---|
| 1777827963 | 21.11° C | 37% | 1018 hPa | 0 mm | - | 803 W/m² | - |
| 1777827053 | 20.56° C | 38% | 1018.1 hPa | 0 mm | - | 687 W/m² | - |
| 1777826749 | 20.56° C | 38% | 1018.1 hPa | 0 mm | - | 687 W/m² | - |
| 1777826446 | 21.11° C | 37% | 1018.3 hPa | 0 mm | - | 767 W/m² | - |
| 1777826144 | 21.11° C | 37% | 1018.1 hPa | 0 mm | - | 767 W/m² | - |
| 1777825841 | 21.11° C | 36% | 1018.4 hPa | 0 mm | - | 732 W/m² | - |
| 1777825538 | 21.67° C | 36% | 1018.3 hPa | 0 mm | - | 733 W/m² | - |
| 1777825236 | 20.56° C | 37% | 1018.4 hPa | 0 mm | - | 687 W/m² | - |
| 1777824932 | 20.56° C | 35% | 1018.2 hPa | 0 mm | - | 642 W/m² | - |
| 1777824628 | 20° C | 38% | 1018.4 hPa | 0 mm | - | 719 W/m² | - |
| 1777824326 | 20° C | 36% | 1018.6 hPa | 0 mm | - | 792 W/m² | - |
| 1777824021 | 20° C | 38% | 1018.5 hPa | 0 mm | - | 831 W/m² | - |
| 1777823718 | 20° C | 38% | 1018.4 hPa | 0 mm | - | 821 W/m² | - |
| 1777823415 | 19.44° C | 39% | 1018.5 hPa | 0 mm | - | 853 W/m² | - |
| 1777823112 | 19.44° C | 40% | 1018.6 hPa | 0 mm | - | 897 W/m² | - |
| 1777822810 | 20° C | 38% | 1018.5 hPa | 0 mm | - | 902 W/m² | - |
| 1777822508 | 20° C | 42% | 1018.5 hPa | 0 mm | - | 863 W/m² | - |
| 1777822205 | 19.44° C | 43% | 1018.7 hPa | 0 mm | - | 924 W/m² | - |
| 1777821902 | 19.44° C | 47% | 1018.6 hPa | 0 mm | - | 909 W/m² | - |
| 1777821600 | 19.44° C | 45% | 1018.6 hPa | 0 mm | - | 859 W/m² | - |
| 1777821298 | 20° C | 47% | 1018.5 hPa | 0 mm | - | 865 W/m² | - |
| 1777820994 | 19.44° C | 46% | 1018.6 hPa | 0 mm | - | 856 W/m² | - |
| 1777820691 | 18.89° C | 46% | 1018.4 hPa | 0 mm | - | 833 W/m² | - |
| 1777820387 | 18.89° C | 50% | 1018.6 hPa | 0 mm | - | 819 W/m² | - |
| 1777820084 | 18.33° C | 50% | 1018.7 hPa | 0 mm | - | 805 W/m² | - |
* Rain latest hour (hover to see other rain measurements)
** Current wind speed in m/s (hover to see current wind gust speed)